Weather in Mgla

Russia / Nenets Autonomous Okrug     66°29′55″N   44°26′57″E
temp.,
°C
wind,
m/s
gust,
m/s
humid.,
%
clouds,
%
prec.,
mm/h
press.,
hPa
HPBL,
m
1 march, mon
mon100:00−4sw101492100 0.3 1004594
03:00−3sw101592100 0.3 1001533
06:00−2sw101696100 1.9 995627
09:000w121799100 5.4 992545
12:00+1w71398100 1.9 991373
15:00+1w7129388 1.9 991307
18:000wnw7119899 1.8 989515
21:00−3w599898 2.3 989157
2 march, tue
tue200:00−4w6109798 0.1 988204
03:00−7wsw699396 0.1 988107
06:00−8w589675 0.0 988101
09:00−5wnw699685 0.3 989303
12:00−2nw5987100 0.1 991321
15:00−5wnw7138766 0.1 993243
18:00−6w9168839 0.0 993289
21:00−4wnw11169569 0.5 991648
3 march, wed
wed300:00−4wnw111687100 1.5 990948
03:00−8wnw91591100 1.5 990480
06:00−11nw111694100 0.8 991555
09:00−13nnw101491100 1.3 994458
12:00−14n71093100 0.3 996485
15:00−15nnw5792100 0.5 998403
18:00−17nnw449698 0.0 99851
21:00−19nne339792 0.0 99723
4 march, thu
thu400:00−20nne339895 0.0 99720
03:00−20nne349798 0.0 99755
06:00−22n349893 0.0 99621
09:00−21n459892 0.1 996114
12:00−17n469498 0.2 996305
15:00−15nne689298 0.3 997523
18:00−17nne6109599 0.1 997283
21:00−18nne6109598 0.2 999277
5 march, fri
fri500:00−19nne7109697 0.1 1000313
03:00−21nne599697 0.3 1002248
06:00−23n579797 0.1 1003167
09:00−25n449790 0.1 100557
12:00−23nnw349513 0.0 1006152
15:00−24nnw119313 0.0 100720
18:00−27n11967 0.0 100719
21:00−25ne229153 0.0 100820